User: anonymous   Login
Location: Caltech
(34.1382°N, 118.1253°W)
Time: 22:25:31
(UTC-08:00)
Language:

Cosmos 44 Rocket - Orbit

View from above orbital plane
View from above orbital plane
View from above satellite
View from above satellite

Ground track
Ground track

The orbit data is extracted from the following two-line orbital elements,

1 00877U 64053B   14329.82989395  .00000179  00000-0  62341-4 0  7931
2 00877 065.0779 141.9435 0052132 125.9578 234.6373 14.58954735665180
Epoch (UTC): 25 November 2014 19:55:02
Eccentricity: 0.0052132
inclination: 65.0779°
perigee height: 659 km
apogee height: 733 km
right ascension of ascending node: 141.9435°
argument of perigee: 125.9578°
revolutions per day: 14.58954735
mean anomaly at epoch: 234.6373°
orbit number at epoch: 66518

The dashed part of the orbit path shows where the satellite is in the earth's shadow,  

DLR